Regional Weather Roundup
Issued by NWS

Home | Current Version | Previous Version | Graphics & Text | Print | Product List | Glossary Off
Versions: 1 2 3 4 5 6 7 8 9 10 11 12 13 14 15 16 17 18 19 20 21 22 23 24 25 26 27 28 29 30 31 32 33 34 35 36 37 38 39 40 41 42 43 44 45 46 47 48

000
ASUS43 KDMX 070107
RWRIA

WEATHER ROUNDUP FOR IOWA
NATIONAL WEATHER SERVICE DES MOINES IA
800 PM CDT MON JUL 06 2015

NOTE: "FAIR" INDICATES FEW OR NO CLOUDS BELOW 12,000 FEET WITH NO
SIGNIFICANT WEATHER AND/OR OBSTRUCTIONS TO VISIBILITY.

* - THESE STATIONS ARE NOT NWS STATIONS...THUS NOT UNDER NWS
QUALITY CONTROL.  THEY ALSO DO NOT REPORT WEATHER SUCH
AS PRECIPITATION OR FOG.

IAZ001>003-012>014-020>022-031>034-043>046-070200-
   NORTHWEST IOWA

CITY           SKY/WX    TMP DP  RH WIND       PRES   REMARKS
CARROLL *      CLEAR     70  61  73 N9        29.97R HAZE
CHEROKEE *     PTCLDY    70  59  68 N12G18    30.01R HAZE
DENISON *      CLEAR     70  63  78 N7        29.96R HAZE
LE MARS *      CLEAR     70  57  64 N15G24    30.03R
ORANGE CITY *  CLEAR     68  55  64 N10       30.04S
SHELDON *      CLEAR     68  57  68 N15G24    30.03S
SIOUX CITY     CLOUDY    73  57  57 N15G23    30.01R HAZE
SPENCER        CLEAR     70  55  59 N17G25    30.01S HAZE
STORM LAKE *   MOCLDY    70  61  73 N13G22    30.01R HAZE
$$

IAZ055>058-069>071-079>083-090>094-070200-
   SOUTHWEST IOWA

CITY           SKY/WX    TMP DP  RH WIND       PRES   REMARKS
ATLANTIC *     CLEAR     70  61  73 N15G21    29.96R HAZE
AUDUBON *      CLEAR     70  61  73 N9G16     29.98R HAZE
CLARINDA *     CLOUDY    70  66  88 N8        29.95R
COUNCIL BLFS * CLEAR     70  61  73 MISG      29.97R HAZE
CRESTON *      CLOUDY    70  66  88 N12       29.94R
HARLAN  *      CLEAR     70  64  83 N13G18    30.00R HAZE
LAMONI         CLOUDY    72  70  93 N8        29.90R
RED OAK *      CLOUDY    72  64  78 N10       29.95R HAZE
SHENANDOAH *   CLOUDY    72  64  78 NE9G15    29.95R HAZE
$$

IAZ047>049-059>061-072>074-084-070200-
   CENTRAL IOWA

CITY           SKY/WX    TMP DP  RH WIND       PRES   REMARKS
AMES           CLOUDY    69  59  70 MISG      29.93S HAZE
ANKENY *       CLOUDY    72  64  78 N12G22    29.91S HAZE
CHARITON *     LGT RAIN  72  70  94 N8        29.89S
DES MOINES     CLOUDY    72  63  73 N17G24    29.90S HAZE
GRINNELL*      CLOUDY    70  66  88 N12G20    29.90R
KNOXVILLE *    CLOUDY    72  70  94 N9G15     29.87S
MARSHALLTOWN   CLOUDY    68  60  75 N16       29.91R HAZE
PELLA *        CLOUDY    72  72 100 N9        29.89S
PERRY *        CLOUDY    70  59  68 N12G17    29.94S HAZE
$$

IAZ004>006-015-016-023>025-035-036-070200-
   NORTH CENTRAL IOWA

CITY           SKY/WX    TMP DP  RH WIND       PRES   REMARKS
ALGONA *       MOCLDY    70  61  73 N7        29.99R HAZE
CLARION *      CLEAR     68  59  73 N14       29.96S HAZE
ESTHERVILLE    PTCLDY    68  57  68 N13       30.00R HAZE
FORT DODGE *   CLOUDY    70  57  64 N9        29.97S
MASON CITY     CLOUDY    69  59  70 N10       29.98R HAZE
FOREST CITY *  CLEAR     66  57  72 N9        29.98R HAZE
IOWA FALLS *     N/A     68  59  73 N9        29.95S HAZE
$$

IAZ007>011-017>019-026>030-037>042-050>054-066-070200-
   NORTHEAST IOWA

CITY           SKY/WX    TMP DP  RH WIND       PRES   REMARKS
CEDAR RAPIDS   CLOUDY    74  71  91 NW10      29.85R
CHARLES CITY * CLEAR     68  59  73 N17G24    29.95R HAZE
CLINTON *      CLOUDY    73  70  88 SW14      29.88S
DECORAH *        N/A    N/A N/A N/A MISG        N/A
DUBUQUE        CLOUDY    75  69  81 W8        29.84S
MONTICELLO *   CLOUDY    75  73  94 NW9       29.85R
OELWEIN *      PTCLDY    68  61  77 N15       29.91  HAZE
WATERLOO       MOCLDY    68  59  73 N18       29.91R HAZE
$$

IAZ064-065-067-068-078-070200-
   EAST CENTRAL IOWA

CITY           SKY/WX    TMP DP  RH WIND       PRES   REMARKS
DAVENPORT      RAIN      71  70  96 SE12      29.88S FOG
IOWA CITY      CLOUDY    77  70  79 NW6       29.87R
MT. PLEASANT * RAIN      73  70  88 W13G18    29.88F
MUSCATINE *    LGT RAIN  72  72 100 CALM      29.87R
QUAD CITIES    HVY RAIN  71  68  90 W8        29.87F FOG
$$

IAZ062-063-075>077-085>089-095>099-070200-
   SOUTHEAST IOWA

CITY           SKY/WX    TMP DP  RH WIND       PRES   REMARKS
BURLINGTON     HVY RAIN  72  71  97 VRB7      29.88S FOG
FAIRFIELD *    CLOUDY    73  72  94 W3        29.88S
FORT MADISON * HVY RAIN  72  72 100 NW8       29.90R
KEOKUK *       HVY RAIN  73  72  94 NW18      29.87R
OSKALOOSA *    CLOUDY    73  70  88 NW5       29.88R
CENTERVILLE *  LGT RAIN  72  72 100 CALM      29.90R
OTTUMWA        CLOUDY    73  71  93 NW7       29.86R
WASHINGTON *   CLOUDY    73  73 100 W6        29.88R
$$

ABBREVIATIONS USED IN REMARKS
   TC - TEMPERATURES IN CELSIUS
  WCI - WIND CHILL INDEX
   HX - HEAT INDEX
  VSB - VISIBILITY
$$



USA.gov is the U.S. government's official web portal to all federal, state and local government web resources and services.